StationID,Date,MaxTemp,MinTemp,Precipitation,Snowfall,SnowDepth
"USW00053123","2000-10-01",100.04,66.92,0.00,,
"USW00053123","2000-10-02",98.96,68.00,0.00,,
"USW00053123","2000-10-03",96.98,69.08,0.00,,
"USW00053123","2000-10-04",82.04,64.04,0.00,,
"USW00053123","2000-10-05",87.98,60.08,0.00,,
"USW00053123","2000-10-06",91.94,62.96,0.00,,
"USW00053123","2000-10-07",89.96,62.06,0.00,,
"USW00053123","2000-10-08",89.06,60.98,0.00,,
"USW00053123","2000-10-09",86.00,62.06,0.00,,
"USW00053123","2000-10-10",73.04,57.02,0.00,,
"USW00053123","2000-10-11",68.00,51.98,0.00,,
"USW00053123","2000-10-12",68.00,55.04,5.00,,
"USW00053123","2000-10-13",73.94,51.08,0.00,,
"USW00053123","2000-10-16",82.04,55.04,0.00,,
"USW00053123","2000-10-17",84.92,55.04,0.00,,
"USW00053123","2000-10-18",84.02,57.02,0.00,,
"USW00053123","2000-10-19",84.92,66.02,0.00,,
"USW00053123","2000-10-20",86.00,62.06,0.00,,
"USW00053123","2000-10-21",80.96,64.04,0.00,,
"USW00053123","2000-10-22",64.94,55.04,10.00,,
"USW00053123","2000-10-23",60.98,51.98,48.00,,
"USW00053123","2000-10-24",64.94,53.06,0.00,,
"USW00053123","2000-10-25",,,0.00,,
"USW00053123","2000-10-26",69.08,55.04,0.00,,
"USW00053123","2000-10-27",60.08,53.96,112.00,,
"USW00053123","2000-10-28",69.08,50.00,0.00,,
"USW00053123","2000-10-29",66.92,53.96,0.00,,
"USW00053123","2000-10-30",60.98,50.00,13.00,,
"USW00053123","2000-10-31",64.04,48.92,0.00,,
"USW00053123","2000-11-01",66.02,48.02,0.00,,
"USW00053123","2000-11-02",66.02,46.04,0.00,,
"USW00053123","2000-11-03",66.02,50.00,0.00,,
"USW00053123","2000-11-04",69.08,48.02,0.00,,
"USW00053123","2000-11-05",71.06,44.96,0.00,,
"USW00053123","2000-11-06",66.02,46.94,0.00,,
"USW00053123","2000-11-07",60.08,42.98,0.00,,
"USW00053123","2000-11-08",59.00,37.04,0.00,,
"USW00053123","2000-11-09",62.96,44.96,0.00,,
"USW00053123","2000-11-10",57.02,41.00,0.00,,
"USW00053123","2000-11-11",51.08,37.04,0.00,,
"USW00053123","2000-11-12",53.06,35.96,0.00,,
"USW00053123","2000-11-13",53.96,30.92,0.00,,
"USW00053123","2000-11-14",57.02,32.00,0.00,,
"USW00053123","2000-11-15",57.02,39.02,0.00,,
"USW00053123","2000-11-16",55.04,39.92,0.00,,
"USW00053123","2000-11-17",53.96,37.04,0.00,,
"USW00053123","2000-11-18",55.94,37.94,0.00,,
"USW00053123","2000-11-19",59.00,32.00,0.00,,
"USW00053123","2000-11-20",64.94,33.98,0.00,,
"USW00053123","2000-11-21",64.94,42.08,0.00,,
"USW00053123","2000-11-22",60.98,37.04,0.00,,
"USW00053123","2000-11-23",66.02,46.94,0.00,,
"USW00053123","2000-11-24",64.94,42.08,0.00,,
"USW00053123","2000-11-25",62.06,41.00,0.00,,
"USW00053123","2000-11-26",62.96,37.94,0.00,,
"USW00053123","2000-11-27",64.04,39.92,0.00,,
"USW00053123","2000-11-28",66.92,42.08,0.00,,
"USW00053123","2000-11-29",73.94,41.00,0.00,,
"USW00053123","2000-11-30",66.92,44.96,0.00,,
"USW00053123","2000-12-01",62.06,44.06,0.00,,
"USW00053123","2000-12-02",66.02,44.96,0.00,,
"USW00053123","2000-12-03",64.94,39.02,0.00,,
"USW00053123","2000-12-04",66.92,39.92,0.00,,
"USW00053123","2000-12-05",66.92,46.94,0.00,,
"USW00053123","2000-12-06",66.92,42.08,0.00,,
"USW00053123","2000-12-07",64.94,48.02,0.00,,
"USW00053123","2000-12-08",66.02,42.08,0.00,,
"USW00053123","2000-12-09",62.06,42.08,0.00,,
"USW00053123","2000-12-10",62.06,42.98,0.00,,
"USW00053123","2000-12-11",57.92,39.02,0.00,,
"USW00053123","2000-12-12",55.94,41.00,0.00,,
"USW00053123","2000-12-13",55.94,37.94,0.00,,
"USW00053123","2000-12-14",57.92,41.00,0.00,,
"USW00053123","2000-12-15",62.96,41.00,0.00,,
"USW00053123","2000-12-16",60.98,42.98,0.00,,
"USW00053123","2000-12-17",62.06,37.04,0.00,,
"USW00053123","2000-12-18",57.02,35.96,0.00,,
"USW00053123","2000-12-19",53.96,30.92,0.00,,
"USW00053123","2000-12-20",57.02,32.00,0.00,,
"USW00053123","2000-12-21",60.98,35.06,0.00,,
"USW00053123","2000-12-22",60.08,35.96,0.00,,
"USW00053123","2000-12-23",60.08,35.96,0.00,,
"USW00053123","2000-12-24",60.08,35.96,0.00,,
"USW00053123","2000-12-25",57.92,44.06,0.00,,
"USW00053123","2000-12-26",60.98,41.00,0.00,,
"USW00053123","2000-12-27",60.08,33.98,0.00,,
"USW00053123","2000-12-28",64.04,37.04,0.00,,
"USW00053123","2000-12-29",64.04,37.94,0.00,,
"USW00053123","2000-12-30",60.98,37.04,0.00,,
"USW00053123","2000-12-31",62.06,33.98,0.00,,
"USW00053123","2001-01-01",64.04,41.00,0.00,,
"USW00053123","2001-01-02",66.02,41.00,0.00,,
"USW00053123","2001-01-03",64.94,35.96,0.00,,
"USW00053123","2001-01-04",66.02,37.04,0.00,,
"USW00053123","2001-01-05",64.04,35.96,0.00,,
"USW00053123","2001-01-06",64.94,41.00,0.00,,
"USW00053123","2001-01-07",64.04,35.96,0.00,,
"USW00053123","2001-01-08",59.00,39.92,48.00,,
"USW00053123","2001-01-09",53.06,44.06,20.00,,
"USW00053123","2001-01-10",55.04,41.00,3.00,,
"USW00053123","2001-01-11",51.98,39.02,66.00,,
"USW00053123","2001-01-12",51.98,37.04,0.00,,
"USW00053123","2001-01-13",51.98,35.96,0.00,,
"USW00053123","2001-01-14",51.98,35.06,0.00,,
"USW00053123","2001-01-15",46.94,37.94,5.00,,
"USW00053123","2001-01-16",48.92,37.94,0.00,,
"USW00053123","2001-01-17",51.08,37.04,0.00,,
"USW00053123","2001-01-18",53.96,33.08,0.00,,
"USW00053123","2001-01-19",53.06,33.08,0.00,,
"USW00053123","2001-01-20",57.92,35.96,0.00,,
"USW00053123","2001-01-21",57.92,33.98,0.00,,
"USW00053123","2001-01-22",57.92,42.08,0.00,,
"USW00053123","2001-01-23",,,0.00,,
"USW00053123","2001-01-24",,,0.00,,
"USW00053123","2001-01-25",57.02,41.00,0.00,,
"USW00053123","2001-01-26",53.06,39.02,38.00,,
"USW00053123","2001-01-27",48.92,39.02,51.00,,
"USW00053123","2001-01-28",53.96,39.02,0.00,,
"USW00053123","2001-01-29",51.08,33.98,0.00,,
"USW00053123","2001-01-30",51.98,41.00,0.00,,
"USW00053123","2001-01-31",55.04,39.02,0.00,,
"USW00053123","2001-02-01",57.02,37.04,0.00,,
"USW00053123","2001-02-02",59.00,35.06,0.00,,
"USW00053123","2001-02-03",66.02,39.92,0.00,,
"USW00053123","2001-02-04",71.96,51.08,0.00,,
"USW00053123","2001-02-05",71.06,44.96,0.00,,
"USW00053123","2001-02-06",75.02,46.94,0.00,,
"USW00053123","2001-02-07",57.02,39.92,0.00,,
"USW00053123","2001-02-08",48.92,35.96,0.00,,
"USW00053123","2001-02-09",55.04,32.00,0.00,,
"USW00053123","2001-02-10",57.02,33.98,0.00,,
"USW00053123","2001-02-11",57.02,35.96,0.00,,
"USW00053123","2001-02-12",57.02,42.98,0.00,,
"USW00053123","2001-02-13",55.04,39.92,51.00,,
"USW00053123","2001-02-14",51.98,37.04,0.00,,
"USW00053123","2001-02-15",55.04,37.94,0.00,,
"USW00053123","2001-02-16",57.92,37.94,0.00,,
"USW00053123","2001-02-17",60.08,37.94,0.00,,
"USW00053123","2001-02-18",66.92,46.94,0.00,,
"USW00053123","2001-02-19",69.08,42.08,0.00,,
"USW00053123","2001-02-20",64.94,48.02,0.00,,
"USW00053123","2001-02-21",64.94,42.08,0.00,,
"USW00053123","2001-02-22",69.08,48.02,0.00,,
"USW00053123","2001-02-23",60.08,44.96,0.00,,
"USW00053123","2001-02-24",55.94,41.00,0.00,,
"USW00053123","2001-02-25",53.06,44.06,71.00,,
"USW00053123","2001-02-26",50.00,44.96,130.00,,
"USW00053123","2001-02-27",59.00,44.06,127.00,,
"USW00053123","2001-02-28",48.02,41.00,119.00,,
"USW00053123","2001-03-01",55.94,37.94,0.00,,
"USW00053123","2001-03-02",57.92,39.02,0.00,,
"USW00053123","2001-03-03",62.06,44.06,0.00,,
"USW00053123","2001-03-04",59.00,46.04,0.00,,
"USW00053123","2001-03-05",69.08,48.92,0.00,,
"USW00053123","2001-03-06",64.04,53.06,18.00,,
"USW00053123","2001-03-07",68.00,51.08,15.00,,
"USW00053123","2001-03-08",68.00,46.94,3.00,,
"USW00053123","2001-03-09",66.02,51.08,0.00,,
"USW00053123","2001-03-10",55.04,46.94,0.00,,
"USW00053123","2001-03-11",64.94,46.94,0.00,,
"USW00053123","2001-03-12",62.96,42.98,0.00,,
"USW00053123","2001-03-13",73.04,44.06,0.00,,
"USW00053123","2001-03-14",78.08,46.94,0.00,,
"USW00053123","2001-03-15",66.92,44.06,0.00,,
"USW00053123","2001-03-16",73.94,44.96,0.00,,
"USW00053123","2001-03-17",68.00,48.92,0.00,,
"USW00053123","2001-03-18",75.02,46.94,0.00,,
"USW00053123","2001-03-19",80.06,51.98,0.00,,
"USW00053123","2001-03-20",80.06,53.06,0.00,,
"USW00053123","2001-03-21",82.94,53.96,0.00,,
"USW00053123","2001-03-22",82.04,57.02,0.00,,
"USW00053123","2001-03-23",80.96,57.02,0.00,,
"USW00053123","2001-03-24",82.04,55.04,0.00,,
"USW00053123","2001-03-25",82.04,55.94,0.00,,
"USW00053123","2001-03-26",84.02,57.92,0.00,,
"USW00053123","2001-03-27",80.06,60.98,0.00,,
"USW00053123","2001-03-28",84.92,55.94,0.00,,
"USW00053123","2001-03-29",82.04,60.08,0.00,,
"USW00053123","2001-03-30",80.06,55.94,0.00,,
"USW00053123","2001-03-31",84.02,55.04,0.00,,
"USW00053123","2001-04-02",84.92,59.00,0.00,,
"USW00053123","2001-04-03",64.04,55.04,0.00,,
"USW00053123","2001-04-04",68.00,53.96,0.00,,
"USW00053123","2001-04-05",66.02,51.08,0.00,,
"USW00053123","2001-04-06",68.00,50.00,0.00,,
"USW00053123","2001-04-07",60.98,46.94,0.00,,
"USW00053123","2001-04-08",62.06,44.96,0.00,,
"USW00053123","2001-04-09",62.96,44.96,0.00,,
"USW00053123","2001-04-10",64.94,46.94,0.00,,
"USW00053123","2001-04-11",66.92,44.06,0.00,,
"USW00053123","2001-04-12",66.02,46.94,0.00,,
"USW00053123","2001-04-13",73.04,44.96,0.00,,
"USW00053123","2001-04-14",77.00,53.06,0.00,,
"USW00053123","2001-04-15",80.96,51.98,0.00,,
"USW00053123","2001-04-16",86.00,53.96,0.00,,
"USW00053123","2001-04-17",89.96,55.94,0.00,,
"USW00053123","2001-04-18",89.96,60.98,0.00,,
"USW00053123","2001-04-19",80.96,57.92,0.00,,
"USW00053123","2001-04-20",66.02,53.96,0.00,,
"USW00053123","2001-04-21",62.06,48.02,0.00,,
"USW00053123","2001-04-22",75.92,53.96,0.00,,
"USW00053123","2001-04-23",78.98,53.96,0.00,,
"USW00053123","2001-04-24",86.00,57.02,0.00,,
"USW00053123","2001-04-25",91.04,62.96,0.00,,
"USW00053123","2001-04-26",95.00,62.96,0.00,,
"USW00053123","2001-04-27",93.92,62.06,0.00,,
"USW00053123","2001-04-28",89.96,62.96,0.00,,
"USW00053123","2001-04-29",87.98,64.94,0.00,,
"USW00053123","2001-04-30",93.92,64.04,0.00,,
"USW00053123","2001-05-01",98.96,64.04,0.00,,
"USW00053123","2001-05-02",80.96,59.00,0.00,,
"USW00053123","2001-05-03",75.02,55.04,0.00,,
"USW00053123","2001-05-04",80.96,57.92,0.00,,
"USW00053123","2001-05-05",87.08,55.04,0.00,,
"USW00053123","2001-05-06",91.94,66.02,0.00,,
"USW00053123","2001-05-07",96.08,68.00,0.00,,
"USW00053123","2001-05-08",96.98,66.92,0.00,,
"USW00053123","2001-05-09",100.94,69.08,0.00,,
"USW00053123","2001-05-10",100.04,69.98,0.00,,
"USW00053123","2001-05-11",100.94,69.08,0.00,,
"USW00053123","2001-05-12",96.98,69.98,3.00,,
"USW00053123","2001-05-13",89.06,64.94,3.00,,
"USW00053123","2001-05-14",95.00,64.94,0.00,,
"USW00053123","2001-05-15",96.98,69.08,0.00,,
"USW00053123","2001-05-16",98.06,69.98,0.00,,
"USW00053123","2001-05-17",93.92,71.06,0.00,,
"USW00053123","2001-05-18",98.96,71.06,0.00,,
"USW00053123","2001-05-19",91.94,71.96,0.00,,
"USW00053123","2001-05-20",100.04,69.98,0.00,,
"USW00053123","2001-05-21",93.92,73.04,0.00,,
"USW00053123","2001-05-22",98.06,66.92,0.00,,
"USW00053123","2001-05-23",102.92,69.98,0.00,,
"USW00053123","2001-05-24",107.06,73.94,0.00,,
"USW00053123","2001-05-25",105.98,75.02,0.00,,
"USW00053123","2001-05-26",102.02,80.96,0.00,,
"USW00053123","2001-05-27",98.96,78.08,0.00,,
"USW00053123","2001-05-28",93.92,75.02,0.00,,
"USW00053123","2001-05-29",100.04,69.98,0.00,,
"USW00053123","2001-05-30",102.92,73.94,0.00,,
"USW00053123","2001-05-31",102.02,75.92,0.00,,
"USW00053123","2001-06-01",107.96,71.96,0.00,,
"USW00053123","2001-06-02",93.92,75.92,0.00,,
"USW00053123","2001-06-03",96.08,66.92,0.00,,
"USW00053123","2001-06-04",86.00,71.06,0.00,,
"USW00053123","2001-06-05",98.96,64.04,0.00,,
"USW00053123","2001-06-06",100.94,71.96,0.00,,
"USW00053123","2001-06-07",105.98,78.98,0.00,,
"USW00053123","2001-06-08",107.96,78.08,0.00,,
"USW00053123","2001-06-09",102.92,82.94,0.00,,
"USW00053123","2001-06-10",104.00,75.92,0.00,,
"USW00053123","2001-06-11",102.02,73.04,0.00,,
"USW00053123","2001-06-12",100.04,75.02,0.00,,
"USW00053123","2001-06-13",84.02,68.00,0.00,,
"USW00053123","2001-06-14",87.98,62.96,0.00,,
"USW00053123","2001-06-15",98.96,64.04,0.00,,
"USW00053123","2001-06-16",102.92,66.92,0.00,,
"USW00053123","2001-06-17",107.06,71.06,0.00,,
"USW00053123","2001-06-18",105.98,75.92,0.00,,
"USW00053123","2001-06-19",105.08,73.94,0.00,,
"USW00053123","2001-06-20",104.00,73.04,0.00,,
"USW00053123","2001-06-21",105.98,77.00,0.00,,
"USW00053123","2001-06-22",107.96,80.06,0.00,,
"USW00053123","2001-06-23",105.98,82.94,0.00,,
"USW00053123","2001-06-24",102.92,84.92,0.00,,
"USW00053123","2001-06-25",100.94,78.98,0.00,,
"USW00053123","2001-06-26",96.08,77.00,0.00,,
"USW00053123","2001-06-27",100.94,73.94,0.00,,
"USW00053123","2001-06-28",105.08,71.96,0.00,,
"USW00053123","2001-06-29",109.04,73.04,0.00,,
"USW00053123","2001-06-30",111.02,78.08,0.00,,
"USW00053123","2001-07-01",113.00,84.92,0.00,,
"USW00053123","2001-07-02",114.08,86.00,0.00,,
"USW00053123","2001-07-03",113.00,89.96,0.00,,
"USW00053123","2001-07-04",109.94,91.04,0.00,,
"USW00053123","2001-07-05",105.08,86.00,0.00,,
"USW00053123","2001-07-07",91.04,73.04,0.00,,
"USW00053123","2001-07-08",96.98,77.00,0.00,,
"USW00053123","2001-07-09",,,0.00,,
"USW00053123","2001-07-10",102.92,80.96,0.00,,
"USW00053123","2001-07-11",104.00,80.06,0.00,,
"USW00053123","2001-07-12",105.08,75.02,0.00,,
"USW00053123","2001-07-13",107.06,78.08,0.00,,
"USW00053123","2001-07-14",107.06,80.06,0.00,,
"USW00053123","2001-07-15",100.04,77.00,0.00,,
"USW00053123","2001-07-16",96.98,73.94,0.00,,
"USW00053123","2001-07-17",96.98,71.96,0.00,,
"USW00053123","2001-07-18",100.04,73.94,0.00,,
"USW00053123","2001-07-19",100.94,71.06,0.00,,
"USW00053123","2001-07-20",102.02,71.96,0.00,,
"USW00053123","2001-07-21",102.02,69.98,0.00,,
"USW00053123","2001-07-22",102.92,69.98,0.00,,
"USW00053123","2001-07-23",102.92,71.96,0.00,,
"USW00053123","2001-07-24",102.92,69.98,0.00,,
"USW00053123","2001-07-26",102.02,73.94,0.00,,
"USW00053123","2001-07-27",,,0.00,,
"USW00053123","2001-07-28",107.96,77.00,0.00,,
"USW00053123","2001-07-29",105.98,78.08,0.00,,
"USW00053123","2001-07-30",100.04,80.06,0.00,,
"USW00053123","2001-07-31",100.04,71.06,0.00,,
"USW00053123","2001-08-01",102.02,71.96,0.00,,
"USW00053123","2001-08-02",102.02,77.00,0.00,,
"USW00053123","2001-08-03",105.98,84.02,0.00,,
"USW00053123","2001-08-04",105.08,75.02,0.00,,
"USW00053123","2001-08-05",105.08,73.94,0.00,,
"USW00053123","2001-08-06",107.06,86.00,0.00,,
"USW00053123","2001-08-07",107.96,82.04,0.00,,
"USW00053123","2001-08-08",105.08,82.94,0.00,,
"USW00053123","2001-08-09",100.04,80.06,0.00,,
"USW00053123","2001-08-10",102.02,80.06,0.00,,
"USW00053123","2001-08-11",105.08,78.98,0.00,,
"USW00053123","2001-08-12",104.00,82.04,0.00,,
"USW00053123","2001-08-13",102.02,78.08,0.00,,
"USW00053123","2001-08-14",102.92,82.94,0.00,,
"USW00053123","2001-08-15",105.98,80.96,0.00,,
"USW00053123","2001-08-16",109.04,80.06,0.00,,
"USW00053123","2001-08-17",107.06,80.06,0.00,,
"USW00053123","2001-08-18",107.96,78.98,0.00,,
"USW00053123","2001-08-19",105.08,82.04,0.00,,
"USW00053123","2001-08-20",93.92,77.00,0.00,,
"USW00053123","2001-08-21",98.06,77.00,0.00,,
"USW00053123","2001-08-22",96.98,68.00,0.00,,
"USW00053123","2001-08-23",98.96,69.08,0.00,,
"USW00053123","2001-08-24",100.94,71.06,0.00,,
"USW00053123","2001-08-25",104.00,75.02,0.00,,
"USW00053123","2001-08-26",107.96,73.94,0.00,,
"USW00053123","2001-08-27",109.04,77.00,0.00,,
"USW00053123","2001-08-29",102.02,78.08,0.00,,
"USW00053123","2001-08-30",98.06,75.02,0.00,,
"USW00053123","2001-08-31",98.06,73.04,0.00,,
"USW00053123","2001-09-01",100.04,71.96,0.00,,
"USW00053123","2001-09-02",98.06,71.96,0.00,,
"USW00053123","2001-09-03",98.06,75.02,0.00,,
"USW00053123","2001-09-04",100.04,75.92,0.00,,
"USW00053123","2001-09-05",100.94,75.92,0.00,,
"USW00053123","2001-09-06",,,0.00,,
"USW00053123","2001-09-07",93.02,69.98,0.00,,
"USW00053123","2001-09-08",89.96,69.98,0.00,,
"USW00053123","2001-09-09",91.94,60.98,0.00,,
"USW00053123","2001-09-10",98.06,62.96,0.00,,
"USW00053123","2001-09-11",98.06,73.04,0.00,,
"USW00053123","2001-09-12",100.94,73.94,0.00,,
"USW00053123","2001-09-13",98.06,69.08,0.00,,
"USW00053123","2001-09-14",93.92,73.94,0.00,,
"USW00053123","2001-09-15",100.04,71.06,0.00,,
"USW00053123","2001-09-16",98.06,69.08,0.00,,
"USW00053123","2001-09-17",93.02,66.92,0.00,,
"USW00053123","2001-09-18",95.00,69.08,0.00,,
"USW00053123","2001-09-19",96.98,68.00,0.00,,
"USW00053123","2001-09-20",98.06,68.00,0.00,,
"USW00053123","2001-09-21",98.06,69.08,0.00,,
"USW00053123","2001-09-22",98.06,71.06,0.00,,
"USW00053123","2001-09-23",98.96,68.00,0.00,,
"USW00053123","2001-09-24",98.06,69.08,0.00,,
"USW00053123","2001-09-25",98.96,71.06,0.00,,
"USW00053123","2001-09-26",100.04,71.06,0.00,,
"USW00053123","2001-09-27",,,0.00,,
"USW00053123","2001-09-28",98.06,69.08,0.00,,
"USW00053123","2001-09-29",96.08,71.06,0.00,,
"USW00053123","2001-09-30",96.98,71.96,0.00,,
"USW00053123","2001-10-01",93.92,71.96,0.00,,
"USW00053123","2001-10-02",93.02,66.92,0.00,,
"USW00053123","2001-10-03",89.96,66.92,0.00,,
"USW00053123","2001-10-04",91.94,66.02,0.00,,
"USW00053123","2001-10-05",87.98,66.02,0.00,,
"USW00053123","2001-10-06",84.92,62.96,0.00,,
"USW00053123","2001-10-07",80.96,62.06,0.00,,
"USW00053123","2001-10-08",84.92,60.08,0.00,,
"USW00053123","2001-10-09",82.04,60.08,0.00,,
"USW00053123","2001-10-10",75.92,55.94,0.00,,
"USW00053123","2001-10-11",75.92,51.98,0.00,,
"USW00053123","2001-10-12",73.94,57.02,0.00,,
"USW00053123","2001-10-13",82.94,53.06,0.00,,
"USW00053123","2001-10-14",84.92,60.98,0.00,,
"USW00053123","2001-10-15",86.00,59.00,0.00,,
"USW00053123","2001-10-16",84.92,57.92,0.00,,
"USW00053123","2001-10-17",87.98,55.04,0.00,,
"USW00053123","2001-10-18",86.00,59.00,0.00,,
"USW00053123","2001-10-19",84.92,60.08,0.00,,
"USW00053123","2001-10-20",84.92,55.94,0.00,,
"USW00053123","2001-10-21",82.04,59.00,0.00,,
"USW00053123","2001-10-22",86.00,59.00,0.00,,
"USW00053123","2001-10-23",87.98,57.92,0.00,,
"USW00053123","2001-10-24",77.00,55.04,0.00,,
"USW00053123","2001-10-25",80.96,51.08,0.00,,
"USW00053123","2001-10-26",84.02,51.08,0.00,,
"USW00053123","2001-10-27",84.92,55.94,0.00,,
"USW00053123","2001-10-28",86.00,55.94,0.00,,
"USW00053123","2001-10-29",78.98,55.94,0.00,,
"USW00053123","2001-10-30",77.00,60.98,0.00,,
"USW00053123","2001-10-31",77.00,59.00,0.00,,
"USW00053123","2001-11-01",78.98,57.02,0.00,,
"USW00053123","2001-11-02",80.06,51.98,0.00,,
"USW00053123","2001-11-03",84.02,53.06,0.00,,
"USW00053123","2001-11-04",84.92,62.06,0.00,,
"USW00053123","2001-11-05",78.08,60.08,5.00,,
"USW00053123","2001-11-06",80.06,55.04,0.00,,
"USW00053123","2001-11-07",82.94,55.94,0.00,,
"USW00053123","2001-11-08",77.00,57.02,0.00,,
"USW00053123","2001-11-09",77.00,55.94,0.00,,
"USW00053123","2001-11-10",78.08,51.98,0.00,,
"USW00053123","2001-11-11",80.06,51.98,0.00,,
"USW00053123","2001-11-12",77.00,51.08,0.00,,
"USW00053123","2001-11-13",68.00,51.08,0.00,,
"USW00053123","2001-11-14",73.04,51.98,0.00,,
"USW00053123","2001-11-15",75.02,48.92,0.00,,
"USW00053123","2001-11-16",75.92,48.92,0.00,,
"USW00053123","2001-11-17",73.04,46.94,0.00,,
"USW00053123","2001-11-18",77.00,48.02,0.00,,
"USW00053123","2001-11-19",73.94,46.94,0.00,,
"USW00053123","2001-11-20",75.02,48.92,0.00,,
"USW00053123","2001-11-21",73.04,48.92,0.00,,
"USW00053123","2001-11-22",73.04,48.02,0.00,,
"USW00053123","2001-11-23",64.04,44.06,0.00,,
"USW00053123","2001-11-24",66.92,41.00,51.00,,
"USW00053123","2001-11-25",57.02,39.92,0.00,,
"USW00053123","2001-11-26",53.96,37.04,0.00,,
"USW00053123","2001-11-27",51.98,37.94,0.00,,
"USW00053123","2001-11-28",46.04,32.00,0.00,,
"USW00053123","2001-11-29",50.00,41.00,0.00,,
"USW00053123","2001-11-30",53.96,35.06,0.00,,
"USW00053123","2001-12-01",55.94,35.06,0.00,,
"USW00053123","2001-12-02",60.98,46.94,0.00,,
"USW00053123","2001-12-03",64.04,44.06,0.00,,
"USW00053123","2001-12-04",55.94,37.04,0.00,,
"USW00053123","2001-12-05",55.94,33.98,0.00,,
"USW00053123","2001-12-06",59.00,35.06,0.00,,
"USW00053123","2001-12-07",64.94,37.94,0.00,,
"USW00053123","2001-12-08",59.00,37.94,0.00,,
"USW00053123","2001-12-09",59.00,33.98,0.00,,
"USW00053123","2001-12-10",57.92,42.98,0.00,,
"USW00053123","2001-12-11",51.98,35.96,0.00,,
"USW00053123","2001-12-12",51.98,33.08,0.00,,
"USW00053123","2001-12-13",51.08,32.00,0.00,,
"USW00053123","2001-12-14",48.92,37.04,15.00,,
"USW00053123","2001-12-15",46.94,35.96,0.00,,
"USW00053123","2001-12-16",48.02,28.94,0.00,,
"USW00053123","2001-12-17",51.98,30.02,0.00,,
"USW00053123","2001-12-18",53.06,28.94,0.00,,
"USW00053123","2001-12-19",55.04,33.08,0.00,,
"USW00053123","2001-12-20",51.08,33.98,0.00,,
"USW00053123","2001-12-21",53.96,37.04,0.00,,
"USW00053123","2001-12-22",51.08,32.00,0.00,,
"USW00053123","2001-12-23",50.00,35.96,0.00,,
"USW00053123","2001-12-24",53.96,35.96,0.00,,
"USW00053123","2001-12-25",53.06,30.02,0.00,,
"USW00053123","2001-12-26",53.96,32.00,0.00,,
"USW00053123","2001-12-27",55.94,35.96,0.00,,
"USW00053123","2001-12-28",55.94,41.00,0.00,,
"USW00053123","2001-12-29",53.06,44.96,0.00,,
"USW00053123","2001-12-30",55.94,39.02,0.00,,
"USW00053123","2001-12-31",57.02,42.98,0.00,,
"USW00053123","2002-01-01",57.92,37.04,0.00,,
"USW00053123","2002-01-02",57.92,44.96,0.00,,
"USW00053123","2002-01-03",53.96,39.92,0.00,,
"USW00053123","2002-01-04",59.00,37.04,0.00,,
"USW00053123","2002-01-05",55.04,33.98,0.00,,
"USW00053123","2002-01-06",59.00,35.06,0.00,,
"USW00053123","2002-01-07",64.04,41.00,0.00,,
"USW00053123","2002-01-08",68.00,44.06,0.00,,
"USW00053123","2002-01-09",64.04,48.02,0.00,,
"USW00053123","2002-01-10",64.94,42.08,0.00,,
"USW00053123","2002-01-11",62.06,37.94,0.00,,
"USW00053123","2002-01-12",57.92,35.06,0.00,,
"USW00053123","2002-01-13",62.96,33.98,0.00,,
"USW00053123","2002-01-14",57.02,35.96,0.00,,
"USW00053123","2002-01-15",55.04,42.08,0.00,,
"USW00053123","2002-01-16",51.08,37.94,0.00,,
"USW00053123","2002-01-17",50.00,28.94,0.00,,
"USW00053123","2002-01-18",51.98,33.98,0.00,,
"USW00053123","2002-01-19",48.92,28.04,0.00,,
"USW00053123","2002-01-20",51.98,35.96,0.00,,
"USW00053123","2002-01-21",53.96,30.92,0.00,,
"USW00053123","2002-01-22",55.04,35.96,0.00,,
"USW00053123","2002-01-23",48.92,30.92,0.00,,
"USW00053123","2002-01-24",51.98,33.08,0.00,,
"USW00053123","2002-01-25",55.94,30.02,0.00,,
"USW00053123","2002-01-26",60.08,33.98,0.00,,
"USW00053123","2002-01-27",64.04,42.08,0.00,,
"USW00053123","2002-01-28",53.06,42.98,0.00,,
"USW00053123","2002-01-29",46.94,32.00,0.00,,
"USW00053123","2002-01-30",42.98,30.92,0.00,,
"USW00053123","2002-01-31",44.96,28.04,0.00,,
"USW00053123","2002-02-01",50.00,24.98,0.00,,
"USW00053123","2002-02-02",55.94,33.08,0.00,,
"USW00053123","2002-02-03",57.92,32.00,0.00,,
"USW00053123","2002-02-04",64.04,37.94,0.00,,
"USW00053123","2002-02-05",57.92,37.04,0.00,,
"USW00053123","2002-02-06",62.06,33.08,0.00,,
"USW00053123","2002-02-07",60.98,33.08,0.00,,
"USW00053123","2002-02-08",68.00,37.94,0.00,,
"USW00053123","2002-02-09",57.92,42.98,0.00,,
"USW00053123","2002-02-10",57.92,35.06,0.00,,
"USW00053123","2002-02-11",60.98,33.98,0.00,,
"USW00053123","2002-02-12",69.98,39.02,0.00,,
"USW00053123","2002-02-13",62.06,39.02,0.00,,
"USW00053123","2002-02-14",69.08,46.94,0.00,,
"USW00053123","2002-02-15",64.94,44.96,0.00,,
"USW00053123","2002-02-16",68.00,42.98,0.00,,
"USW00053123","2002-02-17",62.06,44.06,0.00,,
"USW00053123","2002-02-18",62.06,42.08,0.00,,
"USW00053123","2002-02-19",62.06,41.00,0.00,,
"USW00053123","2002-02-20",69.08,42.08,0.00,,
"USW00053123","2002-02-21",69.08,46.04,0.00,,
"USW00053123","2002-02-22",73.04,44.06,0.00,,
"USW00053123","2002-02-23",80.06,46.04,0.00,,
"USW00053123","2002-02-24",71.96,48.92,0.00,,
"USW00053123","2002-02-25",68.00,46.04,0.00,,
"USW00053123","2002-02-26",62.06,39.02,0.00,,